Location: ?????
(32.7281°N, 34.9563°E)
Time: 12:33:32
(UTC+00:00)

Cosmos 968 Rocket - Pass Details

Date: 29 October 2020
Orbit: 741 x 770 km, 74.0° (Epoch: 26 November)

Event Time Altitude Azimuth Distance (km) Brightness Sun altitude
Rises 16:41:12 0° 336° (NNW) 3,221 7.0 -23.5°
Reaches altitude 10° 16:43:38 10° 331° (NNW) 2,288 6.3 -24.0°
Maximum altitude 16:48:36 47° 258° (WSW) 986 4.4 -25.1°
Drops below altitude 10° 16:53:29 10° 185° (S) 2,256 6.0 -26.1°
Sets 16:55:53 0° 179° (S) 3,172 6.7 -26.6°
